Terminal Aerodrome Forecast
Issued by NWS Charleston, WV

Current Version | Previous Version | Graphics & Text | Print | Product List | Glossary On
Versions: 1 2 3 4 5 6 7 8 9 10 11 12 13 14 15 16 17 18
000
FTUS41 KRLX 201400 AAA
TAFHTS
TAF AMD
KHTS 201457Z 2015/2112 00000KT P6SM BKN050
     FM210300 00000KT P6SM BKN030=

USA.gov is the U.S. government's official web portal to all federal, state and local government web resources and services.